CAPE
222 310 1204 1385 478 723 1256 1299 1531 1403 1470 1441 1770 1721 1834 1700 1714 1910 1708 1737 1568 1489 1560 1460 1495 1558 1230 1322 1366 1480 1469 1447 1301 1617 1541 1504 1457 1396 1290 978 865 1076 1608
256 527 1329 1100 1078 1308 1451 1275 998 1193 1323 1295 1225 1368 1254 1553 1727 1856 1803 1789 1723 1511 1596 1617 1518 1579 1483 1215 1443 1475 1382 1599 1452 1468 1237 1174 1165 1328 1344 1228 825 1059 1744
189 553 827 1062 1678 1377 1591 1452 976 1205 1224 1432 1264 1299 1723 1807 1550 1624 1756 1836 1623 1540 1621 1605 1598 1541 1436 1333 1255 1558 1616 1063 1409 1569 1094 308 962 1344 1453 1388 1435 1658 1573
400 587 761 1069 1311 1502 1670 1388 1369 1515 1546 1537 1421 1401 1383 1555 1644 1732 1405 1813 1721 1691 1583 1568 1578 1568 1527 1573 1484 872 601 247 495 1014 1130 331 652 1239 1002 1007 1344 1485 1368
703 795 1072 1513 1592 1661 1385 1393 1425 1625 1698 1422 973 822 671 730 985 1234 1426 1745 1808 1713 1600 1419 950 730 656 922 1227 1384 507 294 505 691 912 465 236 752 1127 1396 1009 921 1246
799 1099 1518 1764 1778 1653 1414 1443 1422 1589 1605 1493 1724 1616 1148 939 746 868 853 1237 1565 1462 1230 981 566 533 1112 826 1535 1353 848 720 892 526 363 455 771 1121 914 905 863 877 1204
663 819 1044 1830 1939 1449 1538 1426 1591 1553 1679 1679 1741 1617 1946 1206 943 853 765 938 941 891 935 679 457 779 1373 1141 1039 900 396 286 324 614 634 400 637 1583 1309 1009 1091 1392 1152
671 679 872 1787 1888 1536 1566 1671 1702 1708 1897 1819 1736 1471 1393 1313 1240 1143 1043 912 796 788 711 563 531 693 1211 945 517 150 208 365 63 219 233 104 301 1175 1200 1222 847 868 1227
747 614 659 1214 1318 1509 1669 1978 1700 1705 1778 1931 1936 1940 1731 1503 1389 1036 931 975 955 894 773 605 498 498 569 818 563 142 54 154 116 141 234 60 319 585 908 634 647 677 800
772 763 612 1430 1026 1321 1565 2152 1659 1401 1490 1413 1362 1552 1782 1666 1755 1286 780 960 866 618 496 493 480 442 588 377 297 60 27 95 63 91 75 81 517 792 886 1016 840 698 718
720 785 592 1142 6 1588 1269 1021 600 679 972 1050 996 1247 1782 1739 1662 1478 844 1139 1441 1562 1495 1271 1109 1133 1019 680 658 178 226 0 0 7 4 0 30 138 385 314 289 410 438
608 763 565 153 711 1277 708 979 668 559 1658 1917 1965 1818 1082 1251 1261 1200 1525 1429 1442 1349 1439 1705 1790 1695 1694 1778 1312 987 982 256 68 35 0 0 0 9 93 115 92 63 72
431 716 532 154 535 650 456 178 577 830 1349 1923 2328 1833 1828 1399 1804 1396 1423 1734 1643 2007 2041 2049 2127 2130 1206 1408 1053 968 1064 710 391 299 35 0 0 0 32 48 37 25 21
284 469 628 333 958 780 489 316 318 647 943 1231 1851 2004 1824 1341 1290 1174 1347 1220 1184 1232 1497 1400 1512 1720 1589 1591 1542 1440 1177 768 545 553 190 56 31 37 63 140 136 93 70
254 368 782 635 772 937 820 711 321 673 907 1332 1440 1866 1453 1282 1688 1449 1384 1105 1219 1159 1282 1563 1716 1760 1781 1469 1503 1262 1104 1034 1305 887 772 328 101 74 112 218 318 379 331
271 344 1067 279 878 802 1062 1027 614 577 1131 1211 939 1571 1584 1839 2205 1320 1215 953 1069 1307 1462 1762 2058 1548 1420 1274 1578 1592 1416 1358 1268 1356 1319 806 439 237 164 269 362 469 618
361 444 448 255 636 741 981 1285 973 311 402 542 951 1633 1654 1756 2008 1863 1015 963 1129 1338 1367 1522 1806 1464 1187 1270 1400 1296 1302 1312 1275 1476 1419 1325 1049 636 503 389 386 430 544
417 780 319 380 358 562 896 1300 942 912 582 209 405 700 1392 1458 1535 1472 739 765 1712 1164 894 1063 1248 1386 1571 1401 1124 1059 979 1010 1113 1243 1463 1359 1213 1259 877 745 647 640 690
430 571 162 324 147 379 1049 984 1011 1151 1045 686 177 300 1201 1055 826 1258 476 824 1618 849 657 965 1392 1596 1467 1421 1160 911 1007 831 797 809 1228 1662 1627 1665 1580 1265 864 1066 880
425 479 465 344 148 425 837 1030 886 1063 982 985 955 296 474 879 1287 1354 418 698 1035 343 570 2056 1963 1525 1519 1119 1223 1054 824 730 808 809 871 1016 1315 1190 1475 1841 1922 1835 1138
274 485 610 453 414 519 704 735 762 740 822 927 1186 1230 1383 1180 1226 1637 981 760 732 474 1102 1631 1479 1262 976 1023 1247 1034 820 401 485 415 773 734 942 1054 1589 1518 2021 1387 1319
173 323 484 495 573 782 693 708 684 980 1172 1315 880 1425 1526 1525 1404 1204 1705 1089 950 893 827 845 1118 1215 654 729 1106 1100 794 556 126 641 424 916 1124 1078 719 993 1239 1478 1336
496 452 364 401 476 718 588 496 778 1386 1394 715 769 701 990 1409 1383 1526 1700 1834 1942 1776 752 821 884 891 620 878 1057 912 748 586 783 481 223 184 926 1105 1070 822 619 1226 1065
478 675 767 941 759 849 966 571 983 1149 712 773 512 891 743 875 882 977 1336 1606 1911 1745 1835 1364 916 1553 1101 465 195 249 398 769 778 770 375 310 386 409 1320 423 745 621 916
494 678 883 1255 1553 1511 1488 1417 970 1145 1079 1143 763 985 1052 1274 1510 1190 1046 904 1332 1501 1617 1764 1917 1770 1453 1009 549 249 341 283 575 379 186 159 162 190 110 170 115 383 255
539 521 804 1337 1808 1956 1849 1908 1517 379 622 468 719 886 712 784 865 1052 1160 1260 1533 1631 1590 1546 1809 1934 2011 1741 1596 1441 635 408 303 95 40 51 9 12 0 0 15 109 178
CIN
-7 -1 -0 -0 -13 -14 -1 -0 -0 -0 -0 -0 -0 -0 -0 -0 -0 -0 -0 -0 -0 -0 -0 -1 -0 -0 -0 -0 -0 -0 -0 -0 -3 -0 -1 -0 -2 -0 -1 -3 -11 -1 -0
-1 -0 -0 -1 -2 -2 -0 -0 -3 -0 -0 -0 -2 -1 -3 -0 -0 -0 -0 -0 -0 -1 -0 -0 -0 -0 -1 -0 -0 -0 -1 -1 -2 -0 -11 -15 -0 -4 -3 -1 -11 -8 -0
-1 -0 -0 -3 -0 -0 -0 -0 -2 -0 -1 -0 -0 -0 -0 -0 -0 -0 -0 -0 -0 -0 -0 -0 -0 -0 -0 -0 -0 -0 -0 -24 -20 -10 -21 -2 -1 -0 -0 -6 -5 -0 -0
-1 -1 -0 -4 -3 -0 -0 -1 -0 -0 -0 -1 -2 -0 -0 -0 -0 -0 -0 -0 -0 -0 -0 -0 -0 -0 -0 -0 -0 -9 -25 -49 -37 -32 -37 -1 -1 -0 -3 -4 -0 -0 -3
-2 -0 -0 -0 -0 -0 -3 -3 -0 -0 -0 -0 -9 -13 -24 -20 -3 -0 -0 -0 -0 -0 -0 -1 -14 -29 -36 -15 -0 -0 -43 -64 -42 -24 -1 -1 -25 -8 -0 -0 -6 -6 -2
-0 -1 -1 -0 -0 -0 -3 -0 -1 -0 -0 -0 -0 -0 -0 -6 -25 -21 -29 -12 -2 -5 -13 -23 -55 -70 -25 -48 -0 -8 -42 -71 -59 -5 -13 -18 -9 -4 -6 -8 -11 -10 -4
-1 -1 -0 -0 -0 -1 -0 -0 -0 -0 -0 -0 -0 -1 -0 -3 -25 -34 -46 -39 -37 -43 -42 -67 -97 -75 -24 -51 -68 -86 -152 -159 -38 -37 -16 -62 -90 -0 -0 -9 -2 -0 -0
-1 -3 -2 -1 -0 -0 -0 -0 -0 -0 -0 -0 -0 -0 -2 -8 -23 -34 -47 -54 -68 -79 -91 -117 -135 -126 -68 -117 -183 -257 -220 -172 -120 -113 -89 -198 -220 -47 -28 -15 -55 -34 -0
-0 -3 -6 -1 -7 -1 -0 -0 -0 -1 -0 -0 -1 -1 -11 -24 -34 -55 -78 -75 -88 -96 -121 -163 -184 -194 -188 -164 -199 -273 -259 -206 -87 -103 -77 -246 -238 -160 -90 -123 -105 -89 -61
-3 -1 -2 -4 -19 -17 -2 -0 -15 -25 -17 -22 -33 -39 -40 -34 -33 -41 -79 -89 -119 -159 -192 -201 -204 -217 -202 -230 -249 -288 -284 -218 -76 -126 -164 -303 -212 -148 -113 -84 -99 -110 -96
-1 -1 -3 -9 -162 -20 -1 -18 -50 -45 -31 -33 -39 -46 -67 -6 -6 -15 -66 -81 -74 -79 -88 -106 -123 -141 -162 -183 -165 -210 -231 -0 -0 -113 -76 -0 -436 -355 -233 -236 -242 -191 -174
-2 -1 -10 -84 -46 -3 -1 -1 -0 -10 -2 -1 -4 -0 -3 -4 -2 -2 -22 -56 -63 -83 -87 -74 -84 -83 -131 -64 -86 -103 -46 -30 -81 -130 -0 -0 -0 -282 -370 -336 -350 -361 -326
-3 -2 -5 -33 -10 -2 -1 -1 -2 -1 -2 -1 -0 -1 -6 -1 -1 -5 -1 -5 -4 -42 -12 -66 -25 -32 -2 -2 -0 -2 -2 -2 -9 -53 -264 -0 -0 -0 -388 -375 -376 -379 -375
-4 -1 -4 -8 -2 -2 -1 -2 -1 -1 -1 -2 -1 -2 -4 -1 -1 -3 -2 -0 -0 -2 -0 -2 -2 -2 -2 -2 -0 -1 -1 -3 -5 -6 -168 -273 -331 -336 -317 -293 -301 -305 -313
-4 -2 -2 -22 -1 -1 -3 -3 -3 -2 -2 -3 -1 -5 -1 -1 -2 -2 -1 -3 -1 -1 -2 -2 -2 -2 -3 -3 -2 -2 -3 -1 -3 -1 -24 -136 -220 -268 -252 -243 -233 -226 -238
-4 -3 -1 -74 -5 -6 -1 -1 -1 -1 -6 -2 -1 -4 -5 -1 -4 -3 -3 -1 -2 -2 -2 -1 -1 -0 -1 -2 -2 -1 -2 -1 -3 -1 -2 -61 -99 -159 -199 -209 -202 -200 -196
-1 -2 -33 -47 -10 -24 -20 -3 -0 -8 -0 -1 -1 -5 -1 -2 -0 -13 -4 -2 -2 -1 -1 -1 -8 -1 -1 -3 -4 -3 -2 -2 -4 -3 -3 -3 -63 -103 -112 -158 -181 -191 -200
-3 -4 -14 -2 -14 -31 -16 -3 -2 -1 -0 -2 -0 -3 -2 -0 -0 -5 -2 -2 -5 -3 -0 -1 -1 -0 -2 -2 -3 -1 -2 -3 -3 -4 -2 -2 -1 -5 -101 -104 -129 -151 -159
-5 -3 -25 -1 -17 -27 -18 -6 -4 -2 -3 -1 -9 -2 -6 -0 -0 -12 -5 -2 -8 -8 -4 -2 -2 -0 -1 -2 -6 -2 -2 -4 -2 -2 -4 -5 -7 -5 -2 -72 -100 -92 -106
-2 -3 -2 -5 -17 -28 -13 -15 -1 -2 -2 -1 -1 -7 -2 -2 -0 -1 -2 -7 -30 -42 -11 -6 -9 -14 -16 -2 -2 -4 -1 -2 -3 -1 -4 -4 -7 -7 -3 -7 -25 -45 -60
-9 -9 -10 -25 -35 -36 -23 -2 -3 -2 -1 -1 -3 -1 -5 -2 -0 -1 -1 -1 -10 -26 -8 -26 -30 -35 -38 -6 -15 -19 -14 -27 -5 -4 -5 -2 -4 -1 -4 -3 -9 -6 -27
-10 -20 -23 -29 -36 -32 -5 -1 -2 -4 -1 -3 -22 -10 -0 -1 -1 -1 -3 -1 -3 -11 -41 -68 -65 -57 -67 -41 -14 -31 -42 -24 -28 -14 -9 -3 -2 -10 -3 -2 -2 -2 -2
-2 -14 -30 -41 -38 -32 -13 -6 -3 -2 -7 -2 -5 -3 -5 -3 -1 -1 -1 -0 -3 -3 -18 -22 -60 -74 -78 -36 -36 -30 -36 -41 -31 -63 -64 -56 -6 -3 -3 -8 -5 -3 -4
-4 -3 -4 -22 -30 -26 -28 -17 -1 -9 -5 -5 -22 -3 -16 -2 -2 -1 -0 -1 -1 -2 -6 -4 -25 -12 -52 -94 -94 -72 -62 -51 -59 -64 -66 -48 -43 -28 -6 -3 -3 -3 -0
-2 -2 -4 -1 -15 -11 -6 -15 -1 -5 -2 -15 -19 -8 -0 -4 -5 -4 -1 -1 -0 -1 -1 -1 -1 -3 -8 -30 -55 -76 -61 -77 -46 -69 -97 -108 -81 -65 -102 -39 -46 -11 -24
-2 -4 -2 -3 -1 -2 -0 -3 -6 -37 -28 -44 -4 -10 -7 -2 -15 -5 -0 -0 -1 -1 -1 -1 -1 -1 -0 -2 -5 -4 -20 -34 -43 -89 -125 -81 -59 -85 -0 -0 -53 -46 -65
Wind_Speed
24 16 18 21 8 7 27 13 6 1 5 5 4 4 1 23 23 23 24 24 24 24 24 25 27 25 24 26 29 29 29 29 29 29 28 28 28 27 25 24 24 24 24
21 1 19 16 18 26 24 26 2 7 6 3 4 8 19 22 24 24 24 25 25 25 26 26 23 20 13 26 28 29 28 28 28 29 29 29 28 26 26 24 23 25 25
20 30 9 14 17 24 26 11 5 8 9 2 8 22 23 23 24 24 24 25 25 23 23 26 26 2 16 29 28 28 28 26 27 27 27 27 27 27 26 24 25 25 25
17 17 13 13 20 24 15 5 7 5 3 13 22 26 26 26 26 25 25 24 23 23 18 17 19 17 18 23 27 28 27 25 22 20 20 27 28 27 27 26 25 25 25
26 20 15 11 16 21 8 4 6 3 7 26 26 26 27 27 27 27 26 24 21 22 14 18 18 18 20 24 26 28 27 25 21 20 24 29 30 28 27 25 26 25 23
20 17 15 13 14 16 4 3 3 16 27 26 21 23 28 28 27 27 29 26 23 21 21 19 18 17 22 27 27 29 26 22 18 30 30 27 29 28 26 25 24 25 25
26 23 17 13 10 8 5 2 14 18 27 26 7 3 27 28 28 27 27 25 25 25 25 22 19 20 26 32 29 26 23 20 26 24 22 25 27 25 27 25 24 25 24
23 21 20 13 7 3 3 2 11 22 14 13 2 9 18 27 29 29 28 27 27 26 25 22 20 21 27 29 26 24 22 20 25 25 24 25 25 24 24 24 23 23 22
22 19 19 16 7 3 3 3 5 25 19 12 14 17 23 27 30 31 30 28 27 25 24 22 21 22 25 25 23 22 22 20 21 22 27 26 25 23 22 22 22 22 21
20 20 19 19 15 9 4 12 26 27 23 18 19 23 28 31 31 30 31 27 26 24 23 21 21 23 24 23 22 22 20 17 19 24 23 24 24 23 22 21 20 20 20
15 18 20 19 21 21 17 21 27 27 28 25 21 22 23 24 29 28 21 24 24 23 23 22 22 23 24 23 21 20 19 13 20 21 23 24 23 21 21 20 19 19 18
16 17 14 24 27 23 3 22 26 26 18 10 13 14 7 11 13 12 25 25 24 23 22 22 20 19 21 22 18 18 18 18 16 20 23 23 22 21 20 19 18 17 17
17 15 20 26 26 21 7 25 25 25 26 24 15 9 11 14 16 24 18 20 20 21 21 20 18 19 6 9 12 7 13 14 17 20 23 22 21 20 19 18 18 17 16
18 11 27 14 21 10 12 22 22 24 23 25 8 17 18 21 13 9 9 17 14 6 12 9 8 10 9 12 10 11 14 10 11 15 20 20 19 18 17 16 16 15 15
21 9 4 12 21 12 19 15 21 24 23 9 23 13 11 7 12 12 12 10 11 11 10 10 10 10 14 10 9 10 9 9 11 13 17 17 16 15 14 13 13 12 12
28 4 13 15 19 11 9 23 22 21 12 20 17 8 15 10 15 16 18 12 11 12 12 12 13 12 13 11 11 11 12 12 12 11 6 14 14 13 12 11 10 9 8
30 31 31 28 28 22 17 22 20 18 22 19 16 16 15 14 13 17 12 16 13 16 17 15 15 15 14 14 14 15 14 15 15 14 12 10 11 9 9 8 7 7 5
29 5 33 32 27 27 22 23 20 14 19 20 20 16 18 17 15 18 18 16 15 19 19 18 17 17 16 17 17 17 18 17 19 12 5 2 7 8 7 6 7 6 6
24 22 27 28 16 9 5 5 18 14 19 20 20 21 11 19 19 20 20 18 19 21 21 20 18 19 19 20 20 19 20 19 19 20 18 10 7 11 7 8 8 8 8
14 17 16 11 1 2 5 13 14 6 21 21 19 21 10 19 15 19 22 21 22 23 23 19 21 23 23 22 23 23 22 22 20 18 18 12 22 21 15 19 9 6 7
12 13 14 10 4 3 5 8 10 14 20 21 12 19 15 17 20 14 21 18 19 20 20 24 26 26 26 25 25 25 25 24 24 17 23 24 24 14 14 14 12 20 12
9 10 11 11 6 2 5 14 21 19 19 20 16 15 12 9 21 25 18 24 22 23 16 14 18 25 28 28 27 27 26 27 23 22 26 5 9 19 5 13 17 12 13
7 8 9 8 5 2 8 11 15 20 23 22 22 15 9 10 16 22 25 26 26 25 27 12 15 18 23 24 20 19 30 29 30 32 32 25 28 8 8 7 16 12 10
8 7 4 4 2 1 5 14 16 15 19 17 22 18 19 19 24 25 24 22 24 29 30 28 14 9 17 14 21 17 17 27 34 34 33 21 10 5 3 9 10 8 13
7 7 6 2 2 9 6 10 12 14 24 26 21 22 16 22 24 21 24 25 20 18 21 26 30 28 30 26 26 28 24 27 14 10 33 23 18 20 9 18 9 15 3
3 6 3 2 0 3 8 14 17 22 25 30 25 24 23 25 24 28 19 20 25 26 25 25 23 23 24 31 34 35 33 34 32 33 37 29 14 22 17 17 18 12 9
Wind_Direction
158 176 166 155 179 172 73 34 26 122 167 168 175 182 154 52 48 46 52 53 52 53 56 59 65 56 52 60 74 70 77 79 82 81 75 74 85 93 104 107 94 64 75
79 177 165 167 54 74 63 66 64 165 167 174 184 7 35 48 53 52 54 56 58 60 62 61 51 39 22 59 67 78 90 92 91 87 85 75 84 91 85 53 51 80 82
78 106 177 173 53 69 71 35 172 170 170 330 4 46 53 55 62 61 57 59 57 52 50 64 62 168 118 82 91 92 96 108 105 106 108 62 74 86 73 55 70 87 90
75 71 55 170 61 66 43 182 179 192 233 18 52 71 82 76 66 62 64 61 56 53 40 147 141 145 140 125 106 97 106 116 124 129 134 91 81 96 92 89 90 90 84
95 75 61 47 50 61 24 202 196 282 156 75 79 98 94 96 97 83 71 64 53 131 156 145 142 140 135 122 115 110 114 125 132 125 118 101 92 99 101 105 100 97 107
78 66 61 48 47 44 353 323 321 36 82 74 130 123 98 106 112 116 113 128 139 145 141 140 139 140 130 119 117 113 126 132 140 105 104 108 99 101 103 108 106 104 98
97 86 68 49 34 22 358 314 29 36 79 90 182 345 119 116 119 125 132 138 137 132 131 133 137 134 123 107 117 126 134 135 121 122 121 112 109 109 100 104 106 103 104
87 83 78 50 26 335 331 252 16 55 109 165 226 165 147 127 120 125 129 132 132 131 130 134 137 134 121 117 124 132 137 137 123 119 116 112 113 113 109 108 109 109 106
89 81 80 62 33 245 263 302 353 73 148 170 160 152 139 129 121 116 121 126 128 133 135 138 138 132 125 126 132 134 134 138 130 124 108 110 111 112 112 111 108 107 105
91 88 81 75 61 27 288 187 114 119 141 157 153 146 130 114 114 119 108 127 130 134 137 140 140 133 128 133 136 137 138 142 133 117 116 111 109 109 108 110 108 107 104
78 89 92 75 100 169 174 154 118 133 129 141 149 147 148 138 114 122 147 135 135 138 138 139 140 134 131 137 137 140 143 149 130 125 112 108 108 109 108 108 108 107 105
96 95 70 109 167 167 314 155 131 136 151 186 188 176 194 180 175 179 136 133 134 139 142 141 143 147 142 145 150 148 149 140 143 124 108 105 105 105 106 105 107 106 103
109 96 106 122 169 178 221 132 143 138 128 143 181 202 197 180 167 136 166 156 153 140 146 149 144 145 256 201 184 223 168 161 143 124 100 102 103 103 103 102 101 102 101
121 92 178 130 197 235 203 156 161 144 160 151 231 181 169 153 191 220 224 175 188 272 202 213 223 211 230 194 203 206 181 203 179 144 101 101 103 104 104 102 100 98 97
135 104 260 229 202 234 193 206 174 136 169 240 163 220 223 267 211 217 220 245 227 225 229 236 227 225 194 225 249 241 261 270 202 151 103 104 103 106 106 105 100 96 96
155 129 232 222 216 241 265 164 174 184 244 193 209 284 210 249 217 203 181 241 280 252 246 257 233 244 234 260 272 281 222 261 270 222 57 105 106 107 106 106 102 95 95
161 158 197 196 187 201 96 126 183 159 179 213 228 242 238 239 263 219 300 222 289 247 226 243 232 234 260 260 283 260 264 298 294 262 220 119 112 120 107 104 99 89 90
152 121 169 170 148 168 137 148 170 244 204 207 224 250 243 250 266 233 233 270 285 231 243 256 263 257 289 263 261 262 270 255 301 207 162 136 196 81 123 105 85 69 67
133 129 142 157 122 93 28 91 185 260 202 207 226 233 309 255 264 259 244 277 272 237 250 263 283 274 266 255 239 266 280 263 267 278 265 212 165 75 68 85 62 54 66
103 122 126 118 66 333 335 280 281 320 201 219 239 216 337 267 302 282 257 280 264 251 250 289 283 267 254 251 278 266 253 262 253 245 274 238 329 7 35 24 43 54 70
99 117 127 125 103 72 332 320 319 301 264 260 162 273 300 283 282 334 227 311 304 296 293 280 267 269 258 268 291 265 278 254 263 226 321 299 351 39 39 38 54 20 39
93 109 124 130 119 71 334 290 274 289 291 289 312 313 316 331 287 262 283 265 293 291 327 332 316 293 269 268 285 293 263 277 250 310 295 42 36 359 15 20 15 26 27
97 109 124 135 133 122 309 312 304 287 283 287 290 313 330 326 313 294 284 271 279 286 259 332 326 319 308 305 315 317 275 268 288 281 277 267 321 9 359 14 1 18 8
121 120 117 125 141 294 305 296 300 309 299 306 292 307 300 313 297 293 298 303 296 277 278 286 322 327 319 325 316 323 324 311 273 277 302 327 343 267 340 274 2 354 9
126 135 137 146 287 297 310 307 308 309 285 285 298 290 315 301 301 308 299 297 309 315 310 299 291 295 293 303 306 304 311 308 319 275 262 313 334 336 332 344 267 359 331
7 334 342 130 289 306 307 307 302 296 291 278 301 310 306 298 301 289 313 311 300 299 304 306 308 306 303 293 288 290 295 295 302 304 269 293 305 329 334 338 343 357 8